Content
SEND FEEDBACK

Daily
Averages
Monthly
Summary
United States of America

UMATAC, GUAM


Home > North America > United States > Guam
Elevation: 190 feet     Latitude: 13 17N     Longitude: 144 40E

WEATHER
 
SELECT A DAY
Number of Records: 350,330;   Date Range: 1/1/95 - 10/1/14
 
SHARE

PRINT THIS DATA

[ ← Previous Day ]
WEATHER ALMANAC - JANUARY 9, 2013
[ Next Day → ]
[ °C ]   °F
Weather ElementAverageHighLow
Temperature75.5 °F84.2 °F (9:55 am)68 °F (3:01 am)
Dewpoint70.8 °F75.2 °F (5:11 am)66.2 °F (12:03 am)
Humidity85.5 %94 % (12:25 am)70 % (2:28 pm)
Barometer29.78 in29.83 in (8:55 am)29.73 in (2:18 pm)
Wind Speed14.9 mph25.3 mph (12:05 am)
Wind Gust28.8 mph (12:03 am)
Weather ElementAverage
Visibility9.4 mi
Wind DirectionENE (71 °)

Weather ElementTotal
Precipitation0.07 in
Cooling Degree Days11.1 (Base 65)
Growing Degree Days26.1 (Base 50)
Averaged from 113 records on January 9, 2013
WEATHER CONDITIONS BREAKOUT
WIND DIRECTION BREAKOUT
WEATHER BY HOUR - JANUARY 9, 2013
[ °C ]   °F
Local TimeTemperatureDewpointHumidityBarometerVisibilityWind DirectionWind SpeedGust SpeedPrecipitationEventsConditions
12:03 AM69.8 °F66.2 °F88 %29.80 in8.0 miNE (50°)23.0 mph28.8 mphDrizzle
12:05 AM69.8 °F66.2 °F88 %29.80 in8.0 miNE (50°)25.3 mph28.8 mphLight Drizzle
12:07 AM69.8 °F66.2 °F88 %29.80 in8.0 miNE (50°)23.0 mph28.8 mphLight Drizzle
12:09 AM69.8 °F66.2 °F88 %29.80 in8.0 miENE (60°)21.9 mphOvercast
12:25 AM69.8 °F68.0 °F94 %29.79 in10.0 miNE (50°)16.1 mphOvercast
12:27 AM69.8 °F68.0 °F94 %29.79 in10.0 miNE (50°)19.6 mphOvercast
12:31 AM71.6 °F69.8 °F94 %29.79 in10.0 miNE (50°)19.6 mphOvercast
12:34 AM71.6 °F69.8 °F94 %29.79 in10.0 miENE (60°)19.6 mphOvercast
12:35 AM73.4 °F69.8 °F88 %29.79 in10.0 miNE (50°)20.7 mph26.5 mphOvercast
12:45 AM73.4 °F71.6 °F94 %29.79 in10.0 miENE (60°)17.3 mphOvercast
12:55 AM71.1 °F68.7 °F92 %29.79 in10.0 miENE (60°)15.0 mph0.01 inOvercast
12:56 AM71.6 °F68.0 °F88 %29.79 in10.0 miENE (60°)16.1 mphOvercast
1:07 AM69.8 °F68.0 °F94 %29.79 in10.0 miENE (60°)16.1 mphMostly Cloudy
1:17 AM69.8 °F68.0 °F94 %29.79 in10.0 miNE (50°)16.1 mphMostly Cloudy
1:21 AM69.8 °F68.0 °F94 %29.79 in10.0 miENE (60°)15.0 mphMostly Cloudy
1:28 AM69.8 °F68.0 °F94 %29.79 in10.0 miENE (60°)16.1 mphMostly Cloudy
1:40 AM69.8 °F68.0 °F94 %29.78 in10.0 miENE (60°)12.7 mphMostly Cloudy
1:51 AM69.8 °F68.0 °F94 %29.78 in10.0 miENE (60°)13.8 mph23.0 mphMostly Cloudy
1:55 AM69.8 °F67.5 °F92 %29.78 in10.0 miENE (70°)16.1 mphMostly Cloudy
1:58 AM69.8 °F68.0 °F94 %29.78 in10.0 miENE (60°)15.0 mph20.7 mphMostly Cloudy
2:03 AM69.8 °F68.0 °F94 %29.77 in10.0 miENE (60°)15.0 mph20.7 mphMostly Cloudy
2:06 AM69.8 °F68.0 °F94 %29.77 in10.0 miENE (60°)15.0 mph20.7 mphMostly Cloudy
2:09 AM69.8 °F68.0 °F94 %29.77 in10.0 miENE (60°)13.8 mphMostly Cloudy
2:16 AM69.8 °F68.0 °F94 %29.77 in10.0 miENE (60°)15.0 mph20.7 mphMostly Cloudy
2:18 AM69.8 °F68.0 °F94 %29.77 in10.0 miENE (70°)13.8 mph20.7 mphMostly Cloudy
2:22 AM69.8 °F66.2 °F88 %29.77 in10.0 miENE (70°)13.8 mphOvercast
2:53 AM69.8 °F66.2 °F88 %29.76 in5.0 miEast (100°)15.0 mph24.2 mphRainLight Rain
2:54 AM69.8 °F66.2 °F88 %29.76 in4.0 miEast (90°)12.7 mph24.2 mphRainLight Rain
2:55 AM69.4 °F66.2 °F89 %29.76 in3.0 miEast (100°)12.7 mph24.2 mph0.03 inRainLight Rain
3:01 AM68.0 °F66.2 °F94 %29.76 in3.0 miEast (80°)9.2 mphRainLight Rain
3:07 AM68.0 °F66.2 °F94 %29.76 in10.0 miENE (60°)11.5 mphRainLight Rain
3:08 AM68.0 °F66.2 °F94 %29.75 in10.0 miENE (60°)13.8 mphMostly Cloudy
3:23 AM69.8 °F68.0 °F94 %29.75 in8.0 miENE (70°)18.4 mphRainLight Rain
3:32 AM68.0 °F66.2 °F94 %29.75 in10.0 miENE (70°)15.0 mphMostly Cloudy
3:55 AM68.7 °F66.4 °F92 %29.75 in10.0 miEast (80°)13.8 mph0.01 inPartly Cloudy
4:28 AM69.8 °F66.2 °F88 %29.75 in9.0 miEast (90°)13.8 mphMostly Cloudy
4:29 AM69.8 °F66.2 °F88 %29.75 in6.0 miEast (90°)15.0 mphMostly Cloudy
4:30 AM69.8 °F66.2 °F88 %29.75 in5.0 miEast (80°)13.8 mphRainLight Rain
4:31 AM69.8 °F66.2 °F88 %29.76 in5.0 miEast (80°)13.8 mphRainRain
4:34 AM69.8 °F66.2 °F88 %29.75 in5.0 miEast (80°)15.0 mphRainLight Rain
4:35 AM69.8 °F66.2 °F88 %29.76 in5.0 miEast (80°)15.0 mphRainLight Rain
4:37 AM69.8 °F66.2 °F88 %29.76 in5.0 miEast (80°)13.8 mphRainLight Rain
4:41 AM69.8 °F66.2 °F88 %29.76 in10.0 miENE (70°)11.5 mphMostly Cloudy
4:55 AM71.1 °F68.7 °F92 %29.76 in10.0 miEast (80°)12.7 mph0.02 inMostly Cloudy
5:11 AM77.0 °F75.2 °F94 %29.76 in10.0 miENE (70°)13.8 mphMostly Cloudy
5:22 AM75.2 °F73.4 °F94 %29.77 in10.0 miEast (80°)13.8 mphMostly Cloudy
5:55 AM77.4 °F73.9 °F89 %29.77 in10.0 miEast (80°)16.1 mphMostly Cloudy
6:00 AM77.0 °F73.4 °F89 %29.77 in10.0 miEast (80°)15.0 mphMostly Cloudy
6:01 AM77.0 °F73.4 °F89 %29.77 in10.0 miENE (70°)15.0 mphMostly Cloudy
6:13 AM77.0 °F73.4 °F89 %29.78 in10.0 miEast (80°)16.1 mphScattered Clouds
6:55 AM76.6 °F73.4 °F90 %29.79 in10.0 miENE (70°)15.0 mphClear
7:27 AM77.0 °F73.4 °F89 %29.81 in10.0 miEast (80°)16.1 mphMostly Cloudy
7:36 AM78.8 °F73.4 °F83 %29.81 in10.0 miEast (80°)13.8 mphMostly Cloudy
7:41 AM78.8 °F73.4 °F83 %29.82 in10.0 miEast (80°)15.0 mphMostly Cloudy
7:46 AM77.0 °F73.4 °F89 %29.82 in10.0 miENE (70°)16.1 mphMostly Cloudy
7:48 AM77.0 °F73.4 °F89 %29.82 in10.0 miEast (80°)16.1 mphMostly Cloudy
7:49 AM78.8 °F73.4 °F83 %29.82 in10.0 miEast (80°)16.1 mphMostly Cloudy
7:55 AM78.4 °F73.8 °F85 %29.82 in10.0 miEast (80°)17.3 mphMostly Cloudy
7:57 AM78.8 °F73.4 °F83 %29.82 in10.0 miEast (80°)15.0 mphMostly Cloudy
7:58 AM78.8 °F73.4 °F83 %29.82 in10.0 miEast (80°)17.3 mphMostly Cloudy
8:00 AM78.8 °F73.4 °F83 %29.82 in10.0 miEast (80°)16.1 mphMostly Cloudy
8:55 AM78.8 °F73.4 °F83 %29.83 in10.0 miEast (80°)16.1 mphScattered Clouds
9:40 AM82.4 °F75.2 °F79 %29.83 in10.0 miENE (70°)15.0 mph20.7 mphMostly Cloudy
9:55 AM84.2 °F75.2 °F74 %29.82 in10.0 miEast (80°)13.8 mphScattered Clouds
10:55 AM82.8 °F74.8 °F77 %29.81 in10.0 miENE (70°)17.3 mphScattered Clouds
11:00 AM82.4 °F75.2 °F79 %29.81 in10.0 miENE (70°)16.1 mphMostly Cloudy
11:02 AM82.4 °F75.2 °F79 %29.80 in10.0 miEast (80°)17.3 mphScattered Clouds
11:03 AM82.4 °F75.2 °F79 %29.80 in10.0 miEast (80°)16.1 mphMostly Cloudy
11:05 AM82.4 °F75.2 °F79 %29.80 in10.0 miEast (80°)16.1 mphScattered Clouds
11:07 AM82.4 °F73.4 °F74 %29.80 in10.0 miENE (70°)18.4 mphMostly Cloudy
11:42 AM82.4 °F73.4 °F74 %29.78 in10.0 miEast (80°)15.0 mphScattered Clouds
11:55 AM82.8 °F73.6 °F74 %29.77 in10.0 miEast (80°)17.3 mphScattered Clouds
11:56 AM82.4 °F73.4 °F74 %29.78 in10.0 miENE (70°)16.1 mphMostly Cloudy
12:01 PM82.4 °F73.4 °F74 %29.77 in10.0 miENE (70°)15.0 mphScattered Clouds
12:02 PM82.4 °F73.4 °F74 %29.77 in10.0 miENE (70°)13.8 mphMostly Cloudy
12:21 PM82.4 °F73.4 °F74 %29.76 in10.0 miENE (70°)16.1 mphScattered Clouds
12:55 PM82.4 °F72.5 °F72 %29.75 in10.0 miENE (70°)15.0 mphPartly Cloudy
1:19 PM77.0 °F69.8 °F78 %29.75 in10.0 miENE (70°)17.3 mphMostly Cloudy
1:30 PM77.0 °F68.0 °F74 %29.75 in10.0 miENE (70°)15.0 mphMostly Cloudy
1:55 PM77.7 °F68.7 °F74 %29.74 in10.0 miENE (70°)16.1 mphPartly Cloudy
2:18 PM77.0 °F69.8 °F78 %29.73 in10.0 miENE (70°)16.1 mphMostly Cloudy
2:20 PM75.2 °F66.2 °F73 %29.73 in10.0 miEast (80°)16.1 mphScattered Clouds
2:21 PM75.2 °F66.2 °F73 %29.73 in10.0 miEast (80°)15.0 mph20.7 mphMostly Cloudy
2:28 PM84.2 °F73.4 °F70 %29.73 in10.0 miENE (70°)16.1 mphMostly Cloudy
2:55 PM83.7 °F73.6 °F72 %29.73 in10.0 miENE (70°)18.4 mphPartly Cloudy
3:55 PM82.2 °F74.5 °F77 %29.73 in10.0 miENE (70°)12.7 mphScattered Clouds
4:55 PM75.2 °F67.6 °F77 %29.75 in10.0 miENE (60°)15.0 mphScattered Clouds
5:55 PM79.9 °F73.4 °F80 %29.75 in10.0 miEast (80°)15.0 mphScattered Clouds
6:55 PM78.6 °F72.7 °F82 %29.77 in10.0 miEast (80°)11.5 mphPartly Cloudy
7:21 PM78.8 °F73.4 °F83 %29.78 in10.0 miENE (60°)11.5 mphMostly Cloudy
7:23 PM78.8 °F73.4 °F83 %29.78 in10.0 miENE (70°)11.5 mphRainLight Rain
7:33 PM78.8 °F73.4 °F83 %29.78 in10.0 miENE (60°)10.4 mphMostly Cloudy
7:43 PM78.8 °F73.4 °F83 %29.78 in10.0 miENE (60°)11.5 mphMostly Cloudy
7:47 PM78.8 °F73.4 °F83 %29.79 in10.0 miENE (60°)12.7 mphScattered Clouds
7:55 PM78.1 °F73.0 °F84 %29.79 in10.0 miENE (60°)12.7 mph0.00 inScattered Clouds
8:47 PM77.0 °F73.4 °F89 %29.79 in10.0 miENE (70°)10.4 mphMostly Cloudy
8:53 PM75.2 °F71.6 °F89 %29.79 in10.0 miENE (70°)11.5 mphMostly Cloudy
8:54 PM75.2 °F69.8 °F83 %29.79 in10.0 miENE (70°)10.4 mphMostly Cloudy
8:55 PM75.4 °F70.5 °F85 %29.79 in10.0 miENE (70°)10.4 mphMostly Cloudy
9:27 PM75.2 °F71.6 °F89 %29.79 in10.0 miENE (60°)11.5 mphMostly Cloudy
9:43 PM77.0 °F73.4 °F89 %29.79 in10.0 miEast (80°)10.4 mphMostly Cloudy
9:45 PM78.8 °F73.4 °F83 %29.79 in10.0 miENE (70°)10.4 mphMostly Cloudy
9:47 PM78.8 °F75.2 °F89 %29.79 in10.0 miENE (70°)12.7 mphMostly Cloudy
9:55 PM78.4 °F73.8 °F85 %29.79 in10.0 miENE (60°)12.7 mphMostly Cloudy
10:41 PM78.8 °F73.4 °F83 %29.79 in10.0 miENE (70°)12.7 mphScattered Clouds
10:55 PM78.3 °F72.9 °F83 %29.79 in10.0 miENE (70°)13.8 mphScattered Clouds
11:15 PM78.8 °F73.4 °F83 %29.79 in10.0 miEast (80°)15.0 mphMostly Cloudy
11:23 PM78.8 °F73.4 °F83 %29.79 in10.0 miEast (80°)12.7 mphScattered Clouds
11:26 PM78.8 °F73.4 °F83 %29.79 in10.0 miEast (80°)10.4 mphMostly Cloudy
11:46 PM78.8 °F73.4 °F83 %29.79 in10.0 miEast (80°)13.8 mphScattered Clouds
11:49 PM78.8 °F73.4 °F83 %29.79 in10.0 miEast (80°)13.8 mphMostly Cloudy
11:55 PM78.4 °F72.9 °F83 %29.79 in10.0 miEast (80°)12.7 mphMostly Cloudy
11:59 PM78.8 °F73.4 °F83 %29.79 in10.0 miEast (80°)12.7 mphScattered Clouds
Hourly data recorded from PGUA, located miles away from Umatac, Guam







STORIES FROM OUR PARTNERS